Location: Berlin
(38.3226°N, 75.2177°W)
Time: 17:58:06
(UTC+00:00)

Cosmos 1461 - Pass Details

Date: 26 October 2020
Orbit: 500 x 665 km, 65.0° (Epoch: 03 December)

Event Time Altitude Azimuth Distance (km) Brightness Sun altitude
Exits shadow 10:10:08 18° 241° (WSW) 1,508 4.6 -14.6°
Maximum altitude 10:13:06 43° 306° (NW) 884 3.4 -14.0°
Drops below altitude 10° 10:17:34 10° 18° (NNE) 2,056 5.9 -13.1°
Sets 10:20:01 0° 25° (NNE) 2,987 6.8 -12.6°
